Theta_e
302 303 304 305 306 306 307 308 309 309 310 310 310 309 309 308 308 307 307 306 306 307
300 301 302 302 303 304 306 308 309 309 309 309 309 309 308 309 307 306 307 307 307 307
298 300 301 303 302 303 304 305 306 307 308 308 309 308 308 309 306 306 307 307 306 308
296 298 300 300 301 302 303 304 304 305 306 307 307 308 307 308 307 305 307 306 306 307
295 295 295 297 299 301 301 303 303 304 305 305 306 308 310 310 310 307 307 308 307 306
290 291 291 293 296 299 300 301 302 303 304 305 306 307 311 311 311 310 309 309 308 308
286 287 288 290 292 293 295 297 302 303 303 304 307 307 308 310 311 311 310 309 309 308
284 284 286 286 288 290 292 295 298 301 304 304 304 306 307 308 308 309 309 309 308 308
280 281 283 284 286 288 290 292 293 295 298 303 304 294 298 300 306 306 307 308 308 308
277 278 280 283 285 286 287 289 290 292 295 297 300 299 298 296 302 304 305 306 307 306
276 277 280 283 284 283 284 286 288 290 292 293 296 293 293 293 301 303 304 305 305 306
275 276 280 281 280 282 283 285 286 289 291 290 291 289 289 290 295 301 302 304 305 305
275 279 279 278 279 281 283 283 286 286 286 284 284 286 288 289 290 291 297 301 302 292
278 278 277 278 279 280 280 282 282 282 282 282 282 283 286 287 287 288 290 293 297 301
Wind_Speed
7 2 2 3 3 4 3 4 5 6 6 8 7 7 7 6 7 7 7 7 6 4
7 7 4 4 2 2 3 3 5 6 6 7 7 7 7 7 7 6 7 8 7 6
6 6 6 5 6 6 5 3 4 4 6 6 6 6 6 7 5 7 6 6 7 8
6 7 6 6 6 6 6 6 5 4 4 5 6 6 6 7 6 8 8 7 8 10
7 7 7 7 7 6 6 6 6 6 4 4 5 6 8 9 8 9 10 10 9 10
8 9 9 9 8 9 7 6 6 6 6 6 6 6 8 9 9 9 10 11 11 11
9 9 8 9 9 9 9 9 9 8 7 7 6 5 5 6 8 9 9 10 11 11
10 9 9 9 9 10 9 8 9 10 9 8 7 5 7 6 7 8 9 9 10 11
11 11 10 10 10 10 9 9 9 9 10 10 7 9 11 10 9 9 9 9 9 11
10 10 11 11 10 10 11 11 10 10 10 11 11 11 13 13 9 9 10 10 8 7
10 10 10 11 10 10 9 10 10 10 10 10 9 18 17 15 10 9 10 10 10 10
8 9 10 10 10 10 10 9 9 10 10 10 10 18 20 16 9 9 10 10 10 10
9 8 9 8 9 8 9 8 7 8 9 10 12 17 20 16 7 9 7 8 10 12
6 6 8 8 7 8 8 7 8 8 8 10 11 13 20 19 8 7 7 6 7 7
Wind_Direction
37 32 279 269 260 256 238 245 232 222 219 220 210 210 204 211 215 208 219 219 214 224
18 20 2 347 316 288 289 268 251 233 228 224 220 213 204 218 215 203 220 226 220 222
2 5 2 5 360 345 325 324 313 261 241 233 232 224 207 225 210 204 218 221 221 227
6 11 10 17 7 359 345 340 330 307 269 247 234 230 220 232 222 211 226 215 214 231
5 7 7 357 345 350 350 347 341 329 312 287 262 241 235 236 233 217 223 226 223 227
11 5 358 350 345 345 337 334 331 333 323 296 279 257 243 237 237 235 227 224 219 228
7 359 351 345 347 344 339 330 320 312 305 299 287 281 272 253 246 244 236 229 225 223
354 351 349 348 342 336 331 327 330 324 306 293 290 286 279 268 262 256 250 236 229 227
350 344 343 340 337 332 330 330 324 322 320 308 295 279 269 266 270 264 259 257 240 230
346 339 336 332 334 338 335 328 326 321 322 316 312 290 279 276 276 268 262 258 256 239
342 331 328 325 334 332 326 322 321 318 318 313 314 358 348 319 282 266 262 259 253 250
327 323 319 338 331 327 324 321 324 319 335 1 348 5 355 346 319 279 262 256 250 246
318 326 344 333 334 327 329 322 327 348 7 4 353 349 347 349 327 302 293 276 260 244
358 359 4 349 349 352 350 353 5 9 12 7 0 349 351 358 345 307 291 297 315 288